#timestamp,LO_Frequency,Hit,StdDev 
1514570415.5,286046999.7,N
1514570435.3,286046999.7,N
1514570455.2,286047002.6,N
1514570475.9,286047001.9,N
1514570495.7,286047000.8,N
1514570515.6,286046998.3,N
1514570535.4,286047002.7,N
1514570555.3,286047000.5,N
1514570575.1,286047000.9,N
1514570576.0,286047000.9,N
1514570595.8,286047000.6,N
1514570615.7,286047000.6,N
1514570635.5,286046998.6,N
1514570655.3,286046998.9,N
1514570675.2,286046999.9,N
1514570695.0,286046998.1,N
1514570695.9,286046998.1,N
1514570715.8,286046998.8,N
1514570735.6,286046998.6,N
1514570755.4,286046998.3,N
1514570775.3,286047001.2,N
1514570795.1,286047000.6,N
1514570815.9,286046998.3,N
1514570835.7,286046998.9,N
1514570855.5,286046999.0,N
1514570875.4,286046998.9,N
1514570895.2,286047000.0,N
1514570915.0,286047000.4,N
1514570915.9,286047000.4,N
1514570935.8,286046999.9,N
1514570955.6,286046999.8,N
1514570975.5,286047000.7,N
1514570995.3,286047002.4,N
1514571015.1,286047000.7,N
1514571035.9,286047000.8,N
1514571055.7,286047000.4,N
1514571075.6,286047002.4,N
1514571095.4,286046998.2,N
1514571115.2,286046999.5,N
1514571135.1,286046999.4,N
1514571136.0,286046999.4,N
1514571155.8,286046999.3,N
1514571175.7,286046998.9,N
1514571195.5,286046999.6,N
1514571215.3,286046999.4,N
1514571235.2,286046999.5,N
1514571255.0,286046998.4,N
1514571255.9,286046998.4,N
1514571275.8,286046999.2,N
1514571295.6,286046999.1,N
1514571315.4,286046999.4,N
1514571335.3,286046998.7,N
1514571355.1,286046996.5,Y
1514571375.9,286046998.7,P
1514571395.7,286046999.5,N
1514571415.5,286046996.6,P
1514571435.4,286046999.1,N
1514571455.2,286046997.2,N
1514571475.0,286046997.7,N
1514571475.9,286046997.7,N
1514571495.8,286046995.1,Y
1514571515.6,286046998.0,P
1514571535.5,286046995.1,P
1514571555.3,286046995.1,P
1514571575.1,286046995.3,Y
1514571595.9,286047001.0,P
1514571615.7,286047001.2,N
1514571635.6,286046999.4,N
1514571655.4,286046998.2,N
1514571675.2,286046998.2,N
1514571695.1,286047002.4,N
1514571696.0,286047002.4,N
1514571715.8,286046999.9,N
1514571735.7,286046998.2,N
1514571755.5,286046999.3,N
1514571775.3,286046998.7,N
1514571795.2,286046996.5,N
1514571815.9,286046998.7,N
1514571835.7,286047001.0,N
1514571855.6,286047001.0,N
1514571875.4,286047001.9,N
1514571895.3,286047002.2,N
1514571915.1,286046999.8,N
1514571916.0,286046999.8,N
1514571935.8,286047002.7,N
1514571955.7,286047000.7,N
1514571975.5,286046999.9,N
1514571995.3,286047002.6,N
1514572015.2,286047001.9,N
1514572035.0,286047001.7,N
1514572035.9,286047001.7,N
1514572055.8,286047006.0,Y
1514572075.6,286047001.3,P
1514572095.4,286047002.0,P
1514572115.3,286047002.4,P
1514572135.1,286046998.3,N
1514572155.9,286047001.0,N
1514572175.7,286047002.3,N
1514572195.5,286047000.2,N
1514572215.4,286047000.5,N
1514572235.2,286047002.7,N
1514572255.0,286047004.4,Y
1514572256.0,286047004.4,P
1514572275.8,286047002.8,N
1514572295.6,286047002.7,N
1514572315.5,286047002.3,N
1514572335.3,286047000.8,N
1514572355.1,286046998.7,N
1514572375.9,286046998.9,N
1514572395.7,286046999.8,N
1514572415.6,286047000.3,N
1514572435.4,286047001.0,N
1514572455.2,286046998.7,N
1514572475.1,286047000.8,N
1514572476.0,286047000.8,N
1514572495.8,286047000.1,N
1514572515.6,286047002.2,N
1514572535.5,286047001.3,N
1514572555.3,286047000.2,N
1514572575.2,286047002.5,N
1514572595.9,286047004.3,N
1514572615.7,286047003.3,N
1514572635.6,286047003.5,N
1514572655.4,286047003.0,N
1514572675.2,286047001.6,N
1514572695.1,286047002.4,N
1514572696.0,286047002.4,N
1514572715.8,286047002.3,N
1514572735.7,286047004.3,N
1514572755.5,286047001.5,N
1514572775.3,286047005.3,Y
1514572795.2,286047005.9,P
1514572815.0,286047004.8,N
1514572815.9,286047004.8,N
1514572835.8,286047003.3,N
1514572855.6,286047005.9,Y
1514572875.4,286047000.9,P
1514572895.3,286047000.9,N
1514572915.1,286047000.4,N
1514572935.9,286047002.8,N
1514572955.7,286046999.9,N
1514572975.5,286047001.1,N
1514572995.4,286047001.2,N
1514573015.2,286046998.5,N
1514573035.0,286047000.9,N
1514573035.9,286047000.9,N
1514573055.8,286046999.9,N
1514573075.6,286046998.2,N
1514573095.5,286046999.5,N
1514573115.3,286046996.5,N
1514573135.1,286047001.1,N
1514573155.9,286046998.5,N
1514573175.7,286046998.9,N
1514573195.6,286046999.3,N
1514573215.4,286046997.5,N
1514573235.2,286046997.3,N
1514573255.1,286046998.7,N
1514573256.0,286046998.7,N
1514573275.8,286046998.4,N
1514573295.6,286046998.5,N
1514573315.5,286047001.2,N
1514573335.3,286047000.1,N
1514573355.2,286047000.6,N
1514573375.0,286046998.2,N
1514573375.9,286046998.2,N
1514573395.7,286046998.4,N
1514573415.6,286046998.5,N
1514573435.4,286046999.8,N
1514573455.3,286046999.9,N
1514573475.1,286047000.3,N
1514573476.0,286047000.3,N
1514573495.8,286046998.4,N
1514573515.7,286046998.5,N
1514573535.5,286046999.9,N
1514573555.4,286046998.5,N
1514573575.2,286046996.7,N
1514573595.0,286046999.6,N
1514573595.9,286046999.6,N
1514573615.8,286046996.5,Y
1514573635.6,286046998.5,P
1514573655.5,286047000.7,N
1514573675.3,286047000.1,N
1514573695.1,286047000.2,N
1514573715.9,286047000.0,N
1514573735.7,286046999.9,N
1514573755.5,286047001.0,N
1514573775.4,286046999.7,N
1514573795.2,286047001.0,N
1514573815.1,286047002.8,Y
1514573816.0,286047002.8,P
1514573835.8,286047002.6,N
1514573855.6,286047002.5,N
1514573875.5,286046999.8,N
1514573895.3,286047002.1,N
1514573915.2,286046999.8,N
1514573935.9,286047001.9,N
1514573955.7,286047001.3,N
1514573975.6,286047004.3,Y
1514573995.4,286047000.8,P
